PROFILE

 METAR AND TAF INFORMATION
ADDS - METARS form results

(0219 UTC 20 February 2020)
http://aviationweather.gov/metar/data/
 
TJMZ 192339Z 2000/2024 07006KT P6SM SCT030 SCT060 BKN100 FM200300 08005KT P6SM FEW035 FEW090 FM201430 09008KT P6SM FEW030 FM201700 25010KT P6SM VCSH FEW025 SCT040 AMD NOT SKED 

 AIRPORT MAP

 RUNWAY INFORMATION
Runway 09 Runway length 4998 ft Runway width 100 ft
Runway elevation 28 ft Runway displaced threshold 0 ft Runway heading 76
Runway 27 Runway length 4998 ft Runway width 100 ft
Runway elevation 28 ft Runway displaced threshold 0 ft Runway heading 256

 AIRPORT FREQUENCIES
Type A/D Name SAN JUAN C Frequency 118.75 MHZ
Type CLD Name CLNC DEL Frequency 121.7 MHZ
Type RDO Name SAN JUAN R Frequency 110.6 MHZ
Type UNIC Name CTAF/UNICO Frequency 122.8 MHZ

 AIRPORT NEAR NAVIGATION AIDS
Type VOR-DME Name Mayaguez Frequency 110600 KHZ